This is the latest recevied weather packets stored in our database for station/object K9NZF-1. If no packets are shown the sender has not sent any weather packets the latest 10 day(s).
| Time | Temp. | Humidity | Pressure | Rain* | Wind** | Luminosity | Snow |
|---|---|---|---|---|---|---|---|
| 1778356098 | 21.11° C | 63% | 1006.5 hPa | 0 mm | - | 789 W/m² | - |
| 1778356037 | 21.11° C | 63% | 1006.5 hPa | 0 mm | - | 793 W/m² | - |
| 1778355978 | 21.11° C | 67% | 1006.5 hPa | 0 mm | - | 796 W/m² | - |
| 1778355914 | 20.56° C | 68% | 1006.5 hPa | 0 mm | - | 796 W/m² | - |
| 1778355854 | 20.56° C | 68% | 1006.5 hPa | 0 mm | - | 800 W/m² | - |
| 1778355792 | 20.56° C | 64% | 1006.5 hPa | 0 mm | - | 802 W/m² | - |
| 1778355733 | 20.56° C | 63% | 1006.5 hPa | 0 mm | - | 803 W/m² | - |
| 1778355674 | 20.56° C | 62% | 1006.6 hPa | 0 mm | - | 807 W/m² | - |
| 1778355614 | 20.56° C | 64% | 1006.5 hPa | 0 mm | - | 809 W/m² | - |
| 1778355552 | 20.56° C | 66% | 1006.6 hPa | 0 mm | - | 810 W/m² | - |
| 1778355494 | 20.56° C | 67% | 1006.5 hPa | 0 mm | - | 812 W/m² | - |
| 1778355428 | 20.56° C | 68% | 1006.5 hPa | 0 mm | - | 812 W/m² | - |
| 1778355366 | 20.56° C | 69% | 1006.5 hPa | 0 mm | - | 816 W/m² | - |
| 1778355306 | 20.56° C | 70% | 1006.4 hPa | 0 mm | - | 817 W/m² | - |
| 1778355246 | 20.56° C | 68% | 1006.5 hPa | 0 mm | - | 821 W/m² | - |
| 1778355181 | 20.56° C | 66% | 1006.5 hPa | 0 mm | - | 821 W/m² | - |
| 1778355123 | 20.56° C | 67% | 1006.5 hPa | 0 mm | - | 823 W/m² | - |
| 1778355059 | 20.56° C | 67% | 1006.5 hPa | 0 mm | - | 824 W/m² | - |
| 1778354935 | 20.56° C | 67% | 1006.5 hPa | 0 mm | - | 828 W/m² | - |
| 1778354880 | 20.56° C | 66% | 1006.5 hPa | 0 mm | - | 828 W/m² | - |
| 1778354816 | 20.56° C | 67% | 1006.5 hPa | 0 mm | - | 831 W/m² | - |
| 1778354756 | 20.56° C | 69% | 1006.5 hPa | 0 mm | - | 833 W/m² | - |
| 1778354696 | 20.56° C | 66% | 1006.5 hPa | 0 mm | - | 833 W/m² | - |
| 1778354638 | 20.56° C | 66% | 1006.5 hPa | 0 mm | - | 833 W/m² | - |
| 1778354575 | 20.56° C | 67% | 1006.6 hPa | 0 mm | - | 838 W/m² | - |
* Rain latest hour (hover to see other rain measurements)
** Current wind speed in m/s (hover to see current wind gust speed)